Wind_Speed
24 23 21 20 20 21 19 18 17 17 20 21 19 19 16 13 14 16 15 14 15 14 10 10 11 11 14 20 22 21 17 16 18 19 19 19 17 17 16 17 18 16 15 15 14 15 12 11 15 13 11 15 12 11 16 20 18 14 12 14 16 12 8 9 10 9 11 16 17 18 21 21 19 16 18 19 19 18 15 12 13 14 15 15 14 13 11
21 21 20 19 19 19 19 18 16 16 17 18 17 17 16 17 20 24 21 13 13 14 9 9 10 11 17 20 21 23 21 18 18 17 16 15 14 14 14 17 18 16 16 17 16 16 14 12 15 14 11 13 13 12 13 16 16 13 11 11 13 12 9 9 9 8 10 13 13 15 19 18 14 15 19 21 24 27 21 14 12 12 17 20 15 11 12
19 20 20 19 20 19 19 18 17 17 16 16 15 15 18 18 17 20 19 13 15 15 12 11 11 12 17 19 20 21 19 21 24 21 18 17 16 15 15 17 18 17 17 18 18 18 15 12 13 14 13 11 13 15 13 13 16 10 4 4 9 12 11 10 11 10 11 12 11 11 14 14 12 16 22 23 26 31 24 14 13 13 16 19 15 11 12
20 21 20 21 21 20 19 19 18 18 16 15 14 13 15 14 10 12 13 12 14 17 17 16 12 10 13 14 16 18 15 18 24 22 19 19 20 18 16 18 18 18 20 19 19 21 20 16 12 13 14 11 11 13 12 16 15 2 5 2 7 8 10 14 15 13 11 12 11 11 12 14 15 19 24 24 25 29 23 14 14 14 13 14 13 14 16
21 21 21 22 22 20 20 20 19 18 16 15 14 15 15 11 8 9 9 8 10 13 13 10 8 9 12 10 10 15 14 12 14 18 19 21 23 19 16 19 18 18 21 19 18 20 21 20 17 15 15 13 13 16 18 20 13 2 3 7 8 7 11 17 21 20 17 15 14 15 15 16 19 21 24 25 25 27 23 18 18 18 15 15 14 15 19
22 22 22 22 22 21 21 20 19 18 16 14 14 14 14 11 11 14 11 8 8 9 9 9 9 12 13 9 10 14 13 12 12 14 16 18 21 17 14 19 21 19 19 16 16 19 20 20 20 18 16 14 14 17 20 20 12 3 7 11 9 9 12 16 20 21 22 21 18 17 17 17 20 20 22 23 24 27 26 23 24 22 18 17 15 16 21
22 22 21 21 21 21 20 20 19 18 16 16 15 14 14 13 13 15 14 11 12 13 16 15 12 12 10 8 11 13 13 14 13 12 12 13 15 15 16 21 22 22 22 17 14 16 16 17 18 16 17 16 14 13 15 17 15 12 12 12 10 10 10 14 18 18 22 24 22 21 21 20 20 21 21 22 23 26 26 25 26 25 23 22 21 22 24
22 21 21 20 20 20 19 19 19 18 17 17 18 18 16 13 11 12 12 14 16 17 19 16 11 9 9 8 10 12 13 15 14 13 11 10 13 16 14 13 15 17 19 19 19 17 16 17 16 15 16 15 12 11 10 13 16 16 15 13 14 12 9 12 15 14 17 22 23 24 24 22 22 22 22 23 24 25 26 25 25 24 24 25 25 24 21
23 22 21 20 20 19 19 18 18 18 16 17 20 22 20 14 11 11 12 11 13 15 16 14 10 8 8 9 10 11 14 15 14 14 14 14 15 14 14 15 16 17 18 17 18 17 14 13 13 14 15 15 15 14 11 11 14 16 15 14 13 12 10 11 13 12 13 16 19 23 24 23 24 23 23 26 24 22 22 21 22 22 23 24 24 21 16
23 22 21 21 20 20 20 19 18 17 17 18 20 21 20 16 12 11 11 10 10 12 11 11 11 10 10 12 13 13 15 15 13 11 12 16 18 14 13 14 12 13 15 13 13 18 20 19 19 17 12 11 14 15 11 12 13 11 13 13 12 12 10 10 12 11 12 16 19 19 18 18 19 19 22 25 24 22 22 21 22 23 22 19 18 16 15
24 23 22 21 21 20 20 19 18 17 18 20 21 21 21 19 13 10 10 10 10 11 10 10 10 11 13 15 14 16 17 16 13 11 9 12 17 18 15 13 10 9 12 17 23 27 26 22 20 16 11 10 10 9 10 13 14 12 10 11 13 15 12 10 10 9 11 16 18 16 15 15 14 15 20 24 25 25 24 23 24 23 20 18 17 17 18
23 23 22 21 21 20 20 19 18 18 19 20 21 22 22 20 15 12 11 9 10 11 10 10 12 14 16 16 14 14 16 15 15 15 13 13 18 21 18 13 8 9 16 24 28 28 23 18 15 13 12 11 11 12 14 15 15 14 13 11 11 14 13 10 10 9 9 11 13 14 14 13 12 13 17 22 25 26 26 26 26 25 24 24 23 21 20
22 22 22 21 20 19 20 19 18 17 18 18 20 23 21 18 16 16 13 9 9 10 10 12 16 18 18 17 16 15 17 19 19 19 19 17 17 19 19 15 11 13 19 24 25 22 16 11 10 10 9 10 11 15 18 20 19 17 16 13 11 10 10 9 9 9 9 9 11 13 11 10 11 12 14 17 20 23 23 22 23 24 25 26 24 22 21
22 21 21 20 19 19 19 19 18 17 17 18 20 23 20 17 17 20 16 9 7 11 13 11 12 15 16 16 16 15 15 17 18 18 19 19 17 18 19 18 16 15 17 18 17 13 8 6 6 7 7 7 9 12 17 20 21 22 20 17 14 12 9 9 9 9 9 9 11 11 10 12 13 9 6 5 8 11 10 10 14 17 19 22 24 23 22
21 20 20 19 19 18 18 17 17 17 17 18 20 22 20 18 19 21 18 10 8 11 14 12 10 12 13 15 15 13 10 10 11 13 16 18 18 17 17 17 15 14 14 13 10 6 5 6 7 8 8 9 10 10 11 13 17 22 24 19 16 15 12 10 10 9 9 10 10 10 12 13 11 5 3 3 6 7 7 6 10 14 18 20 22 23 24
20 19 19 19 17 17 17 16 16 16 16 17 19 21 20 20 21 21 18 13 9 9 11 11 11 12 12 14 15 12 9 7 7 8 10 12 14 15 14 12 12 12 12 10 6 5 6 7 8 8 9 11 11 10 10 9 11 17 23 23 22 19 14 11 11 10 10 11 10 10 10 7 3 5 4 2 6 7 6 7 11 12 16 21 21 21 24
18 18 19 18 17 16 15 15 15 16 16 16 18 20 18 18 20 20 19 17 12 13 18 19 17 15 12 11 11 10 9 8 8 7 6 7 11 12 10 9 11 13 13 8 5 6 8 8 9 9 10 11 11 10 10 11 11 14 19 22 23 20 14 12 14 13 12 12 10 9 8 3 4 3 2 2 5 5 4 10 9 6 12 19 21 20 22
17 17 17 16 15 14 14 15 15 15 16 16 17 18 17 17 18 18 19 17 13 15 22 23 20 18 12 8 11 13 11 10 8 6 7 8 8 8 7 8 9 11 13 10 6 7 9 9 9 10 10 10 11 10 10 11 12 14 16 17 17 16 14 13 13 13 14 14 11 9 7 5 8 5 2 2 2 5 8 8 3 9 16 21 21 22 24
16 16 15 15 15 14 13 14 14 14 15 14 15 18 18 16 17 18 19 19 15 15 20 19 18 19 15 11 15 17 14 13 11 7 7 6 3 9 11 10 8 7 10 9 7 7 8 9 9 9 9 10 9 9 10 12 12 13 16 18 17 14 13 13 13 14 13 12 11 11 8 4 7 7 4 2 5 7 5 4 7 10 15 19 20 22 26
16 16 15 15 14 13 13 13 14 14 14 14 16 19 17 14 16 19 21 22 18 19 23 22 20 21 19 16 18 18 15 15 12 7 7 6 7 12 9 7 5 4 6 7 7 7 7 8 8 6 7 9 7 5 7 11 14 14 16 17 15 13 12 12 12 11 11 11 11 12 8 5 6 7 7 5 4 3 2 6 8 10 12 14 18 22 24
15 15 14 13 12 12 12 13 14 13 13 13 15 18 17 15 16 19 22 23 18 16 18 18 17 19 19 18 20 20 18 18 16 12 11 11 10 9 5 2 3 4 3 3 5 5 3 4 6 4 5 7 5 3 5 9 13 16 16 15 14 13 12 11 10 10 10 12 11 5 2 6 7 5 4 3 1 2 3 4 6 8 9 9 13 18 19
14 13 12 11 11 11 11 12 13 13 13 13 13 16 17 16 15 15 17 20 20 20 20 20 20 21 22 22 22 22 22 22 21 19 17 16 12 11 12 11 9 7 4 3 4 2 3 3 3 3 5 5 4 4 6 6 7 11 13 12 11 13 13 10 10 10 6 3 2 4 7 9 9 6 5 4 3 3 2 1 3 5 6 7 9 10 8
13 12 11 10 10 10 11 12 13 13 12 12 13 15 17 15 12 11 13 17 20 23 24 25 25 25 25 26 26 25 25 25 23 21 19 17 13 13 16 14 9 7 7 5 3 3 4 3 3 4 5 5 4 5 5 7 8 7 6 6 7 11 15 14 10 7 6 8 8 8 9 10 12 12 10 8 6 4 3 3 4 5 6 7 10 10 4
12 11 10 10 10 10 11 12 12 12 12 11 12 14 16 15 12 10 10 13 15 16 17 19 21 21 20 20 19 19 21 23 23 22 21 19 15 12 11 9 6 7 5 3 2 5 6 4 4 4 4 5 5 4 5 7 7 3 3 5 6 5 6 10 10 8 6 5 7 10 11 12 13 15 15 15 11 9 8 9 9 8 9 9 8 11 11
11 10 10 9 10 10 10 10 10 11 11 11 11 13 14 13 11 11 11 11 13 11 9 11 16 18 17 17 17 16 17 18 19 19 21 23 23 19 13 6 5 6 5 4 3 5 6 4 3 4 6 6 5 4 5 5 4 1 1 1 4 6 10 5 8 8 4 6 10 15 18 18 17 17 16 16 15 14 14 15 15 13 11 12 12 10 12
10 9 9 9 9 9 9 9 9 9 9 9 10 12 13 11 10 12 13 12 13 13 9 10 14 14 12 14 15 14 14 14 16 18 21 23 24 24 21 16 12 10 8 6 4 5 6 5 4 4 6 6 7 6 6 7 7 3 3 3 8 10 8 6 3 5 7 10 13 15 16 16 17 19 18 18 18 20 19 18 18 17 16 16 17 16 15
9 9 9 9 9 9 8 8 8 8 8 8 10 12 12 10 10 13 12 8 9 9 8 9 13 15 15 18 18 16 16 17 17 18 20 20 21 21 20 18 16 13 11 9 7 5 4 5 5 5 7 8 9 8 7 7 7 2 3 6 10 7 4 7 4 3 7 9 12 12 11 10 11 16 19 19 21 24 25 22 19 18 18 18 18 18 19
10 10 10 9 8 8 7 7 7 7 8 9 10 11 12 11 11 12 11 10 10 11 11 15 20 21 20 19 17 15 16 18 19 19 19 19 19 19 18 17 16 14 12 10 7 4 4 5 5 6 6 7 8 7 6 6 5 0 3 7 9 6 5 6 4 0 4 9 14 15 15 13 12 17 21 22 23 26 27 25 23 22 21 20 19 19 20
10 10 9 8 7 7 7 6 7 8 8 9 10 12 14 13 12 12 11 12 14 15 15 18 19 17 15 14 13 12 12 14 17 19 19 18 18 18 17 16 15 13 12 11 7 4 5 7 8 8 7 6 5 5 5 5 2 2 4 6 7 7 7 8 8 6 4 13 17 18 21 19 16 19 24 24 22 24 25 24 24 23 23 21 20 20 20
10 10 9 8 7 7 7 7 8 8 8 9 10 12 12 10 7 7 8 9 11 12 12 11 11 13 16 18 16 12 11 12 15 16 18 18 18 18 17 16 15 14 12 11 8 4 4 6 8 9 11 9 5 3 4 3 2 3 3 4 7 8 9 12 11 4 9 17 18 21 26 24 19 22 27 25 21 19 20 21 20 20 20 21 20 20 21
10 10 9 9 8 8 8 8 8 9 9 9 8 8 7 3 1 4 6 5 6 7 8 9 12 16 18 17 14 12 10 11 13 15 16 15 15 16 16 15 15 14 12 11 8 4 3 6 6 5 8 10 7 3 4 3 2 2 3 6 7 8 10 13 10 7 17 21 21 23 25 21 17 20 23 24 21 16 14 16 17 16 15 17 19 18 18
11 10 10 9 9 9 9 9 9 10 10 11 11 11 9 7 7 9 9 7 6 7 7 8 9 9 8 8 10 10 10 11 12 12 13 14 14 14 16 16 14 13 12 9 6 4 5 7 6 7 12 13 8 3 3 1 3 4 6 8 8 9 12 16 16 12 16 19 18 18 17 15 15 16 16 18 17 12 10 12 14 12 11 13 15 16 15
12 11 10 9 10 10 10 10 10 10 10 11 11 10 10 10 9 9 9 8 7 8 8 7 6 5 6 10 13 9 7 10 11 10 10 11 13 13 15 16 13 11 10 8 5 4 4 4 3 8 15 14 6 1 1 3 6 8 9 10 10 11 16 21 24 20 13 14 14 14 15 16 17 17 17 18 16 13 12 11 10 10 11 12 13 14 14
13 11 9 9 10 10 9 9 8 7 7 8 7 6 6 7 6 6 7 7 7 7 7 6 4 5 7 9 10 7 1 6 9 9 7 10 13 12 13 14 11 9 10 9 6 3 3 4 5 8 10 8 3 1 2 5 8 9 11 11 10 12 19 25 27 25 19 18 19 20 19 19 18 18 18 19 18 16 15 13 11 10 10 12 13 13 14
12 10 9 11 11 9 7 5 5 5 6 5 5 5 7 7 6 6 6 5 6 6 6 5 5 5 6 6 4 3 2 3 8 9 9 12 15 13 12 10 8 7 8 8 6 3 4 7 9 6 3 1 1 1 2 6 9 11 12 12 11 14 18 21 21 21 20 19 21 21 19 18 18 18 18 17 16 13 12 12 11 10 11 12 12 12 12
10 10 11 11 10 8 6 5 5 5 4 2 3 6 7 7 7 7 7 7 8 7 6 6 5 4 4 5 4 5 5 3 6 8 9 12 12 13 13 10 6 5 8 7 4 5 8 12 9 1 2 1 2 4 5 8 12 13 14 15 15 17 18 17 16 19 21 20 21 22 20 19 19 17 15 14 12 10 10 12 12 11 11 11 10 9 9
10 11 11 9 7 7 5 3 3 4 4 3 5 8 9 8 6 6 7 9 9 9 8 7 6 6 6 5 5 5 5 3 2 4 7 9 9 12 13 9 5 6 7 5 4 4 7 11 6 3 4 3 5 8 10 12 13 13 14 15 16 17 18 17 16 19 21 20 19 20 19 18 17 15 14 14 11 10 12 13 12 10 9 8 8 8 7
9 10 10 6 4 4 3 1 2 5 7 6 7 8 8 8 6 5 6 7 6 7 8 6 6 9 10 7 8 8 4 1 0 3 7 9 8 9 10 7 5 6 5 3 3 3 3 4 4 5 6 7 10 13 13 13 14 12 12 12 11 11 13 13 13 15 15 14 13 12 13 14 15 14 15 14 12 11 11 11 11 10 8 7 7 7 6
9 10 8 5 3 4 5 6 6 8 8 7 6 5 5 6 4 3 4 5 4 5 7 6 6 9 9 6 7 7 3 2 2 2 5 8 7 6 5 5 4 4 2 1 2 3 1 2 4 5 6 7 9 11 12 13 14 12 11 11 11 10 10 10 11 12 12 12 10 9 9 11 12 12 13 13 11 10 9 9 8 8 6 5 4 5 5
10 9 8 6 6 6 7 8 8 7 6 5 5 4 3 4 4 2 2 3 3 5 6 4 6 7 6 6 6 5 3 1 2 3 2 5 6 5 4 3 2 2 2 1 1 1 0 2 4 5 6 5 6 8 11 13 13 13 13 13 13 12 11 11 11 11 11 12 11 9 9 11 11 10 10 10 9 9 9 8 7 6 5 4 3 3 3
10 8 8 9 9 8 7 6 5 5 5 4 3 3 3 3 3 2 2 2 2 1 2 6 7 5 6 9 9 7 5 4 4 3 2 2 2 1 3 3 1 1 2 2 1 1 1 3 4 5 5 6 8 11 11 12 12 13 13 13 12 11 11 11 10 10 10 10 10 11 11 10 9 9 8 8 8 8 8 7 6 6 6 5 5 5 4
10 9 10 10 8 8 7 6 4 3 4 3 2 2 3 3 2 2 2 1 2 3 6 8 8 7 9 11 10 8 7 6 3 1 1 2 5 5 2 1 1 1 2 3 1 0 1 4 5 5 6 8 11 12 12 12 13 12 12 12 12 11 11 11 10 10 9 9 10 11 10 9 8 8 8 8 9 8 8 8 8 8 7 7 6 6 5
8 9 10 9 7 7 6 5 5 3 2 2 3 3 2 3 3 2 1 2 4 5 6 7 8 10 10 8 7 8 8 6 2 2 1 1 4 3 0 1 2 2 2 2 2 2 3 5 5 6 8 10 11 12 12 13 12 11 11 11 11 11 12 12 12 12 11 10 11 10 9 8 8 8 9 9 9 9 9 9 9 9 9 9 8 7 6
10 9 8 7 6 6 5 4 5 5 3 3 4 4 3 4 4 4 4 4 6 7 8 8 11 10 6 4 5 5 5 4 2 2 1 1 2 1 1 1 3 2 1 3 3 4 4 5 5 7 10 11 11 11 12 11 10 10 10 11 11 11 12 13 14 13 13 12 12 11 10 10 9 9 10 10 9 9 9 10 10 10 10 10 10 10 10
9 8 7 5 5 6 5 3 4 4 3 3 4 4 5 5 5 5 5 7 8 9 11 13 12 8 5 5 5 3 3 4 5 4 2 1 2 2 2 3 3 2 1 4 4 4 5 6 5 7 11 13 12 11 11 9 9 10 12 12 12 12 12 12 13 14 14 13 13 13 12 11 11 11 11 10 9 10 10 10 9 10 10 11 11 11 11
6 7 6 4 4 5 4 3 3 3 2 2 3 3 3 4 5 6 7 8 9 10 11 12 10 7 5 4 3 2 3 4 3 3 3 2 3 3 3 3 3 2 3 5 5 4 6 6 5 7 12 14 12 12 11 9 9 12 14 13 13 13 13 14 14 15 15 15 15 14 13 12 11 11 11 11 10 10 10 9 9 10 11 11 11 11 11
5 5 5 3 3 3 4 3 3 5 6 5 5 5 6 6 8 9 9 7 8 9 9 8 7 5 3 3 3 3 2 2 4 5 5 3 2 2 2 3 3 3 3 5 5 4 6 7 8 10 13 14 14 13 11 10 11 14 14 14 14 14 14 14 15 15 15 15 15 15 14 13 13 12 12 12 12 11 11 10 10 11 11 11 11 11 11
6 5 4 4 2 3 5 5 5 9 12 10 8 9 9 7 6 6 8 7 7 8 8 5 2 1 1 2 2 2 2 3 4 4 4 2 2 2 2 4 4 3 3 4 5 5 6 9 13 15 14 13 13 12 10 10 13 15 15 15 15 14 14 14 15 15 14 14 14 15 14 14 13 13 13 13 13 12 12 11 11 12 12 12 12 12 12
6 5 5 4 1 2 7 9 5 4 7 7 6 7 9 7 6 9 11 9 7 8 9 6 3 1 1 1 1 1 4 4 3 3 3 3 3 3 3 4 5 4 3 4 5 7 7 9 13 14 13 11 10 10 10 11 13 14 14 14 14 13 14 14 14 14 13 13 14 14 13 13 13 13 13 13 13 12 11 11 11 11 12 12 11 11 11
7 7 8 7 3 4 10 13 9 6 8 12 14 15 15 14 13 13 12 10 10 10 10 7 4 0 2 2 2 3 4 4 3 3 4 5 4 3 3 4 5 4 3 4 7 9 10 11 12 12 12 10 10 10 11 12 12 12 13 13 12 12 13 14 13 13 13 13 13 13 12 12 12 12 11 11 11 11 11 11 10 11 11 11 10 10 10
8 7 9 12 12 10 12 12 10 9 10 14 16 17 17 16 15 15 15 15 13 9 5 4 2 2 4 4 4 3 3 3 3 4 5 4 3 3 4 5 4 3 5 8 9 10 11 12 12 11 11 11 10 9 10 12 12 11 11 11 11 11 12 12 12 12 12 12 12 12 12 11 11 10 10 10 9 10 10 10 10 10 10 10 9 8 8
9 8 8 12 15 15 14 13 13 13 14 16 17 19 18 18 17 18 18 17 14 9 5 4 4 4 5 4 3 2 2 2 3 4 5 4 3 4 4 4 4 4 6 8 8 9 11 13 12 11 10 9 8 8 9 10 11 11 10 10 10 10 10 10 10 11 11 12 12 11 11 10 9 9 10 10 10 9 9 9 8 9 9 9 9 7 6
Wind_Direction
301 304 307 307 309 310 309 313 318 325 334 339 340 330 311 288 281 280 282 284 266 251 254 252 245 245 249 254 256 255 254 251 251 252 247 242 237 233 239 244 245 247 247 247 244 241 242 227 222 228 222 217 212 191 200 214 211 197 201 203 197 206 223 211 219 235 217 210 216 216 212 219 230 225 216 219 224 226 226 225 226 225 221 223 231 238 233
299 300 303 303 305 307 306 308 312 320 331 337 336 329 312 298 291 284 280 272 248 243 249 249 250 251 248 249 250 250 252 252 250 248 244 243 242 239 236 235 237 241 241 244 245 240 237 230 226 229 228 219 213 197 196 217 221 202 195 199 187 193 217 215 208 223 221 206 206 213 209 209 221 225 219 216 219 226 229 226 230 230 222 225 231 233 230
298 299 299 300 302 304 304 304 306 310 320 329 330 323 310 301 289 278 271 246 229 240 252 260 266 267 263 260 253 248 246 244 243 247 250 249 247 246 244 240 238 236 236 237 240 240 239 233 227 230 234 227 217 206 191 208 223 212 185 207 201 197 202 207 211 211 210 207 205 207 204 204 213 224 225 220 217 224 227 220 225 232 224 224 231 237 230
298 297 297 298 301 303 301 299 300 302 308 318 320 312 304 299 290 283 279 256 240 242 253 270 283 287 289 287 272 265 260 243 238 243 248 247 250 255 249 244 241 234 231 232 232 233 235 236 232 228 230 227 221 216 205 210 220 244 21 259 226 223 207 202 216 226 221 214 213 211 205 206 209 217 225 225 222 225 227 220 225 233 231 225 227 240 238
298 296 296 297 299 300 298 297 299 299 300 308 309 298 290 286 280 282 291 290 272 255 256 284 320 314 310 317 299 288 288 277 263 258 251 241 242 251 254 249 244 234 229 228 229 230 230 231 233 232 233 230 221 219 218 216 208 68 347 234 218 238 230 210 212 224 235 234 224 215 212 218 218 214 218 225 226 227 225 224 227 231 236 230 218 230 240
298 296 295 297 298 298 297 296 295 295 295 296 294 286 279 274 276 284 291 291 276 267 280 313 331 313 307 312 308 302 296 290 287 283 279 261 243 240 244 247 249 246 240 232 226 227 226 226 227 228 233 235 227 215 210 212 208 195 239 230 216 229 237 224 214 214 226 238 240 229 221 227 230 221 216 218 225 229 229 229 227 226 236 239 221 220 233
298 297 297 297 297 296 295 293 291 289 288 282 274 270 273 277 280 286 291 284 276 280 288 294 299 297 299 296 292 295 290 282 282 286 298 299 281 264 243 235 242 248 248 243 232 225 224 225 223 223 228 231 232 221 202 201 212 221 225 220 216 226 233 230 226 219 218 227 236 239 235 233 233 230 225 220 222 228 232 236 235 231 236 241 234 230 230
298 298 298 297 296 294 292 290 287 283 281 278 267 257 260 275 289 295 294 284 279 282 281 278 276 275 275 269 270 276 277 279 283 285 293 312 310 298 281 270 277 276 266 254 240 230 232 231 223 221 224 222 230 239 220 204 207 211 217 215 208 215 226 227 232 236 226 221 225 233 237 239 236 232 230 229 227 226 226 230 236 237 238 239 238 239 238
297 296 297 296 295 293 291 289 286 282 275 271 266 258 255 265 281 288 292 286 279 281 279 272 269 264 253 248 254 258 261 265 270 279 288 288 284 298 324 331 324 316 303 277 251 250 262 263 257 250 237 226 226 231 230 227 218 206 210 215 206 207 219 223 228 238 236 226 226 230 233 240 242 237 233 232 232 231 231 229 228 230 236 239 238 239 240
294 293 294 293 292 291 290 286 284 282 271 263 264 264 263 265 264 264 275 279 274 275 278 271 267 265 255 251 252 252 256 263 266 271 281 278 276 298 337 340 325 312 312 319 322 324 325 319 309 300 288 267 245 232 232 248 247 228 214 212 207 207 214 217 219 230 236 230 232 236 236 239 242 238 237 239 236 233 235 237 233 229 232 236 237 239 241
291 291 291 290 290 290 288 284 281 279 272 264 262 264 265 268 269 265 266 272 274 273 273 268 264 266 267 264 260 255 255 258 260 262 271 280 288 302 318 323 315 294 307 334 340 332 324 312 300 293 298 303 281 258 260 263 265 264 246 226 213 206 208 218 219 226 233 227 227 234 236 235 236 234 236 243 247 243 239 239 237 234 236 238 238 239 241
289 288 288 286 287 287 286 283 279 276 276 270 263 261 263 267 273 268 255 262 277 276 272 271 271 275 276 273 270 266 261 259 258 260 266 275 285 291 295 302 299 288 309 326 330 328 321 306 290 276 267 271 273 270 269 264 260 259 255 251 234 208 200 215 222 224 231 226 222 226 228 231 237 237 233 236 243 249 252 251 244 237 237 241 242 240 237
290 288 286 283 282 283 282 283 279 275 276 272 261 257 259 262 266 264 256 260 274 274 275 278 277 277 277 274 275 272 267 264 258 255 258 264 272 278 280 281 283 292 308 318 322 325 323 307 294 284 266 258 262 265 263 259 255 250 244 245 243 219 203 211 222 224 223 218 218 224 233 242 238 237 237 235 237 242 248 256 253 244 238 237 239 241 239
289 287 285 282 280 280 280 281 279 275 274 270 261 259 260 256 252 253 253 254 266 273 278 282 281 281 281 279 278 276 271 269 264 257 254 254 257 263 266 270 278 291 304 313 316 318 315 302 287 265 247 247 251 250 250 249 248 245 240 237 233 224 215 213 216 219 218 219 223 227 243 249 237 231 243 260 264 261 262 271 273 273 265 246 236 238 242
289 288 286 282 281 280 279 280 279 276 274 270 264 261 259 253 247 247 248 253 267 273 271 271 279 293 299 293 286 284 282 278 272 263 255 249 248 252 257 262 272 284 293 299 303 305 297 280 256 231 222 225 228 231 235 238 238 235 234 234 229 224 220 217 218 218 215 222 228 229 235 236 223 190 108 29 341 336 344 312 277 283 286 266 244 236 239
290 290 288 285 283 279 277 277 277 276 275 271 265 261 257 253 250 246 244 247 254 263 264 267 280 294 297 291 287 286 284 283 289 281 263 249 247 246 244 251 266 276 281 279 272 272 272 254 240 237 231 222 221 223 219 220 226 223 221 223 225 223 219 215 220 223 220 223 227 228 231 229 174 129 113 46 355 2 356 287 255 256 272 275 266 249 240
290 291 291 291 286 280 277 277 279 278 274 269 266 263 258 255 252 246 237 234 237 252 264 272 281 284 281 280 283 282 279 285 295 293 283 274 271 262 251 258 267 257 250 257 261 248 245 241 237 238 236 230 230 227 215 214 219 211 207 211 217 219 216 211 216 220 218 221 227 232 233 191 128 132 132 75 7 350 269 245 254 292 306 302 295 280 260
293 294 295 293 284 277 275 277 281 280 274 270 267 262 257 253 252 248 241 237 239 252 260 264 269 270 273 285 287 282 285 289 287 290 291 280 281 293 289 280 270 238 223 230 246 238 236 240 235 233 238 238 237 236 226 217 215 210 203 201 205 212 213 211 216 218 215 217 224 237 242 189 159 166 130 74 312 265 234 231 299 344 331 322 316 308 292
298 300 300 293 283 278 274 276 283 281 274 270 262 258 257 250 247 249 244 236 235 250 258 262 267 269 273 282 281 279 282 279 273 285 289 263 298 338 307 268 247 228 218 221 232 236 237 239 234 237 242 235 234 247 245 231 223 214 205 201 202 206 206 208 214 217 218 220 224 232 236 178 144 155 146 164 234 235 241 301 342 337 325 323 321 316 303
300 300 299 291 282 277 274 276 282 281 276 270 260 258 260 250 244 247 239 229 232 253 263 265 268 271 272 273 273 274 276 271 265 271 270 269 332 341 305 229 205 233 230 226 234 234 234 241 243 246 247 241 242 263 263 252 245 230 212 206 204 199 197 205 211 214 217 217 222 232 229 169 149 171 169 181 230 242 314 324 328 330 329 331 325 313 301
302 299 297 292 281 275 275 278 282 281 277 270 261 261 263 255 248 249 241 233 236 254 265 268 270 271 271 269 267 266 266 265 265 270 272 277 304 316 291 279 319 283 237 224 245 240 244 260 252 245 255 257 260 290 280 260 254 246 231 218 206 197 199 207 205 206 220 222 219 225 165 137 155 172 153 150 253 6 357 327 333 332 324 331 324 303 286
308 302 299 295 286 280 279 280 282 281 276 269 262 261 262 259 255 252 247 243 243 249 259 270 276 275 270 267 264 262 260 261 263 268 273 274 274 273 276 292 299 280 276 293 273 281 357 321 273 274 273 259 260 287 277 255 258 261 243 219 203 197 201 214 214 203 213 244 188 125 100 108 119 104 77 81 81 44 6 342 14 355 328 323 316 292 259
311 307 302 297 293 288 284 282 282 280 275 268 260 257 262 267 263 255 257 258 256 259 265 269 271 271 268 265 263 259 255 254 254 255 257 261 264 264 264 268 273 279 294 306 297 317 341 319 295 304 290 267 270 290 275 248 252 266 261 247 235 214 210 221 222 180 112 67 76 107 111 106 106 96 74 64 73 68 51 73 77 48 23 356 329 324 354
314 310 304 300 298 295 291 288 284 280 275 268 261 259 263 268 267 263 265 260 254 262 272 266 260 263 268 269 267 259 250 245 242 241 240 241 246 251 249 255 275 286 297 344 337 303 307 308 297 290 284 287 288 277 261 251 249 268 326 289 266 258 251 235 209 171 139 118 105 96 88 89 98 95 75 61 69 85 80 70 68 61 53 44 11 349 3
320 314 308 306 304 302 300 294 286 282 277 270 265 264 262 264 266 268 267 260 257 267 283 275 268 271 274 272 264 256 251 243 236 233 230 229 232 239 245 266 310 309 319 356 337 291 290 295 299 292 289 305 319 289 268 276 278 277 57 283 271 328 342 301 201 177 154 139 122 98 81 76 81 85 72 57 61 79 87 83 79 75 69 68 67 41 24
325 320 316 311 306 305 304 299 290 287 284 275 268 265 261 261 269 269 264 263 269 270 267 272 283 288 285 272 261 254 252 245 234 231 230 228 230 237 247 261 276 282 291 298 291 287 289 286 289 285 280 307 337 318 291 306 306 265 131 21 311 298 318 327 256 174 127 124 130 117 96 84 82 79 67 55 58 68 74 79 84 85 82 76 74 68 55
328 326 322 315 309 306 304 300 296 293 289 280 273 272 268 263 266 270 267 264 271 272 264 274 294 303 300 289 281 270 256 245 238 234 232 230 230 233 239 248 255 261 268 269 268 271 271 270 273 269 273 299 314 300 277 288 297 259 111 11 335 317 341 356 339 175 153 158 163 145 113 95 95 85 70 59 61 64 59 55 56 61 67 68 66 60 56
333 329 324 318 313 307 302 300 295 290 287 283 278 278 276 266 260 263 263 254 255 265 277 289 295 300 300 294 287 273 252 240 236 234 231 229 228 228 231 235 238 245 254 259 267 275 262 267 283 284 289 304 302 290 278 270 267 325 41 0 352 357 2 5 8 207 161 151 148 131 108 98 98 93 83 72 66 62 55 45 36 33 39 49 53 48 45
335 331 328 326 320 308 303 300 294 290 293 295 293 288 279 267 259 260 260 255 253 258 272 286 290 290 290 290 286 275 253 232 225 225 225 223 221 220 224 229 231 237 247 250 253 270 272 276 282 272 263 273 291 297 290 264 227 63 20 351 353 355 352 357 350 336 81 109 114 110 105 105 100 92 90 86 76 67 58 48 38 30 26 30 41 44 42
334 333 332 332 326 315 307 302 299 296 293 295 300 298 286 266 251 262 271 265 259 261 271 284 289 290 292 290 281 267 245 223 214 214 215 216 215 215 219 226 232 236 243 246 246 259 281 278 270 259 252 248 250 283 284 252 148 83 34 6 5 4 4 357 340 338 100 98 98 101 101 101 98 91 88 88 87 76 61 53 49 42 31 26 32 38 41
331 330 326 323 319 314 308 302 298 296 294 287 281 284 287 274 253 305 305 284 261 265 274 279 284 290 293 286 267 244 223 206 202 204 204 203 205 208 212 219 225 227 230 238 241 245 276 267 259 274 274 253 229 245 286 266 152 95 55 39 29 24 24 16 15 90 111 104 101 101 98 95 95 92 86 85 89 85 66 55 54 51 42 31 26 28 34
330 325 321 318 313 307 304 300 293 291 289 279 267 266 277 288 294 299 302 293 274 271 273 278 286 288 289 294 282 251 216 193 187 186 186 189 193 199 205 213 218 220 224 232 230 223 249 254 248 273 279 264 240 253 300 269 114 78 62 60 52 48 47 38 36 70 117 125 117 108 100 92 87 88 88 88 91 90 78 64 55 52 50 37 25 22 28
329 324 320 317 312 307 303 297 292 288 282 279 280 281 281 285 288 290 286 276 271 272 272 280 295 285 292 323 321 292 218 177 168 162 165 180 188 190 198 207 212 212 212 213 210 219 246 256 251 265 269 262 244 224 12 95 89 73 70 73 67 64 66 57 45 48 84 117 114 104 103 100 95 94 96 94 88 84 84 80 67 56 51 42 30 24 24
325 320 316 315 314 312 308 300 293 285 279 284 294 290 279 282 295 299 286 269 262 267 264 260 274 290 306 326 325 313 219 145 161 171 178 188 193 191 191 195 202 203 199 200 209 226 242 249 252 260 263 257 229 178 101 88 81 72 73 80 81 75 71 64 52 47 60 84 93 95 99 101 99 92 86 86 86 83 80 78 77 67 52 41 33 24 19
320 316 318 320 316 309 304 302 290 272 275 288 285 268 271 284 295 299 295 274 258 259 258 246 249 284 313 319 309 321 6 158 187 196 188 182 188 192 184 181 198 204 185 186 207 229 235 243 247 245 232 194 115 99 83 74 70 68 71 78 78 71 67 65 59 55 60 75 88 94 94 92 88 82 76 79 87 88 81 77 74 62 49 41 34 25 20
320 321 322 320 314 299 290 294 284 263 256 263 265 271 283 293 290 287 283 267 257 263 283 294 286 289 310 312 310 334 342 276 217 206 186 175 181 189 186 184 201 195 166 167 206 231 231 235 238 220 85 101 58 65 76 75 72 71 72 71 71 71 73 75 76 73 71 71 79 86 86 80 77 77 77 78 80 81 84 82 70 54 46 41 31 21 18
321 326 327 324 314 295 285 293 289 267 257 254 266 284 292 285 271 267 263 255 251 251 262 286 295 282 283 289 288 306 332 333 268 228 199 178 171 180 188 192 186 168 168 189 230 226 216 217 207 87 73 93 78 76 84 85 79 76 73 72 76 78 78 80 87 89 84 75 73 79 83 79 77 80 82 81 77 73 77 78 68 56 51 42 29 21 14
327 332 331 327 319 307 311 345 296 278 284 286 282 285 280 261 247 245 240 234 234 235 239 252 269 267 271 279 273 272 282 74 152 244 207 187 175 176 188 196 184 168 174 218 237 211 179 168 137 85 78 83 72 70 80 85 80 75 73 74 77 78 75 77 86 92 90 79 69 70 78 82 84 84 82 80 76 67 64 65 61 56 48 32 21 16 4
340 336 333 332 346 346 339 329 306 294 300 298 281 266 245 228 236 257 229 213 214 219 218 226 251 261 274 294 290 284 293 128 172 240 196 184 180 172 176 191 197 182 166 163 208 210 185 107 106 87 77 75 65 65 77 84 81 79 75 69 68 71 76 81 83 87 91 89 77 66 71 82 86 85 82 79 74 65 61 63 63 60 51 30 22 22 11
342 338 334 329 333 332 318 308 304 305 303 284 260 252 235 225 239 250 218 227 237 208 199 238 276 275 288 307 299 305 349 6 262 281 212 189 195 187 172 170 183 182 166 141 189 205 128 94 98 86 74 71 67 69 76 79 79 79 78 72 70 74 82 87 87 88 92 94 91 85 81 83 84 84 83 84 83 79 75 71 70 73 75 68 59 57 50
332 333 328 319 324 335 331 321 321 315 292 271 262 266 262 251 248 239 234 266 275 187 17 342 328 325 343 334 316 311 327 309 278 289 314 282 283 255 152 158 205 201 150 105 59 37 62 75 82 80 76 79 81 81 81 80 79 79 81 81 81 82 86 87 85 81 81 88 96 96 90 87 88 89 91 93 96 97 95 90 87 93 100 99 94 93 93
314 328 335 327 327 338 336 322 312 288 267 275 306 296 279 297 305 275 269 326 352 1 5 357 342 332 333 324 305 291 300 315 332 29 24 351 9 24 67 178 255 5 89 91 86 104 89 85 86 83 74 72 76 79 82 83 83 83 85 89 92 96 98 97 95 94 93 97 102 103 101 104 109 110 111 111 109 107 109 107 102 99 100 100 100 98 96
338 348 351 342 328 323 321 317 322 323 307 323 331 305 298 338 337 300 305 11 360 357 13 6 334 321 321 311 291 286 292 302 341 91 146 25 42 45 220 190 87 66 77 91 85 74 68 68 79 91 88 79 75 77 82 86 87 88 90 93 96 102 108 109 109 109 110 113 116 118 120 120 118 116 117 118 116 113 110 105 101 96 91 87 85 85 84
15 356 343 336 326 326 334 343 345 349 354 346 336 336 353 1 351 340 354 359 350 357 3 337 308 305 316 315 314 326 316 299 321 37 23 359 56 60 272 59 66 61 99 110 95 84 77 73 84 101 99 89 79 78 84 89 94 98 104 107 109 111 114 114 113 114 116 117 118 118 119 116 112 107 105 104 102 99 94 91 90 89 83 77 75 73 71
355 335 330 337 340 341 347 350 346 353 2 353 344 351 355 349 340 343 350 340 324 322 321 308 299 308 336 329 328 12 18 330 339 12 16 3 38 33 30 68 61 17 51 90 84 75 81 84 88 94 91 83 75 74 78 83 92 99 103 105 103 103 105 106 105 107 112 115 117 118 118 115 111 105 99 94 88 82 80 78 77 78 76 73 71 68 63
331 335 343 351 348 348 354 360 357 1 3 330 313 314 319 324 318 308 305 309 309 309 313 316 320 338 358 348 333 339 322 313 336 5 5 17 39 31 37 68 55 11 51 82 81 76 83 84 79 81 83 80 75 73 73 79 91 99 101 99 95 93 94 95 94 95 98 103 109 113 113 110 106 102 98 93 86 80 77 73 70 69 69 66 63 60 57
334 342 345 347 344 341 350 355 331 312 307 307 309 307 299 296 298 298 299 307 314 318 323 327 320 311 320 344 346 330 329 4 21 10 2 22 49 18 28 61 50 18 45 74 80 84 88 87 84 79 75 72 72 72 73 81 89 92 94 95 93 92 91 89 88 89 90 93 97 101 103 103 103 100 96 92 86 81 77 72 68 65 63 59 57 54 53
354 352 346 349 345 329 334 336 307 293 295 292 287 293 295 285 284 314 337 342 334 333 345 354 336 291 336 7 350 335 358 29 31 16 9 20 11 354 35 65 60 36 40 67 85 91 83 80 83 83 76 70 70 69 69 77 82 83 85 89 92 92 91 88 85 83 83 85 88 90 92 95 95 93 90 88 85 80 76 73 69 65 62 59 55 52 51
16 14 349 336 283 291 333 345 338 301 306 314 321 332 340 349 359 0 357 350 342 346 349 337 298 217 116 112 131 20 13 19 30 32 29 31 27 15 27 58 66 60 47 52 75 85 82 81 86 87 82 73 70 70 72 76 78 79 81 83 84 85 86 85 84 82 81 80 81 83 84 86 87 87 86 86 84 80 77 75 72 68 64 59 56 55 54
18 14 356 353 4 350 347 357 14 24 10 12 17 12 5 4 7 3 352 340 340 348 344 322 293 290 64 59 68 55 27 12 22 38 37 36 34 24 27 50 65 77 95 101 101 103 103 99 95 89 80 68 62 68 78 81 80 80 82 82 81 81 80 79 80 81 80 78 78 79 79 79 80 80 80 83 84 82 76 72 71 72 68 61 58 58 58
8 3 0 9 18 13 1 5 16 18 12 15 16 10 4 3 1 353 344 340 342 347 343 325 331 57 63 47 42 43 16 351 11 41 46 38 23 18 42 55 52 57 93 103 102 100 98 95 90 85 75 60 46 51 69 77 76 76 80 82 83 82 80 77 77 77 76 75 75 76 77 78 81 83 82 77 75 76 73 68 67 68 65 60 57 57 61
8 354 358 14 19 13 7 9 12 9 10 14 12 7 6 6 359 353 358 11 22 35 48 35 28 47 57 45 35 46 50 37 38 44 45 40 26 24 44 66 73 78 90 93 86 78 77 77 74 71 68 58 43 43 62 72 72 70 71 76 80 81 80 79 78 76 75 75 74 74 77 80 82 85 82 73 66 66 67 65 65 65 60 55 52 46 49
Height
1503 1502 1501 1500 1499 1498 1496 1495 1494 1492 1490 1488 1487 1486 1482 1478 1471 1465 1465 1466 1467 1465 1459 1452 1447 1441 1435 1431 1427 1424 1421 1417 1414 1411 1408 1405 1403 1402 1401 1400 1399 1396 1392 1390 1388 1385 1382 1380 1379 1377 1375 1372 1370 1369 1371 1372 1371 1376 1385 1386 1383 1388 1395 1404 1407 1397 1388 1385 1383 1382 1385 1391 1396 1392 1390 1394 1396 1396 1402 1410 1411 1411 1416 1420 1425 1430 1417
1501 1500 1499 1498 1497 1496 1495 1494 1493 1492 1491 1489 1488 1486 1483 1477 1471 1465 1462 1463 1463 1460 1453 1448 1442 1435 1431 1427 1424 1421 1418 1414 1411 1410 1407 1405 1403 1401 1399 1397 1397 1395 1393 1392 1389 1387 1385 1382 1377 1376 1377 1372 1368 1368 1371 1373 1371 1372 1378 1379 1380 1389 1396 1401 1410 1414 1406 1397 1395 1393 1388 1390 1394 1390 1385 1386 1389 1392 1394 1396 1403 1411 1413 1413 1421 1427 1413
1499 1498 1497 1496 1495 1494 1493 1493 1492 1491 1491 1490 1488 1487 1483 1477 1469 1462 1458 1459 1459 1454 1449 1445 1439 1433 1428 1423 1418 1415 1412 1410 1410 1408 1406 1404 1403 1400 1397 1394 1393 1391 1392 1392 1389 1386 1385 1383 1379 1377 1376 1372 1367 1367 1372 1375 1371 1369 1372 1372 1374 1384 1392 1396 1406 1416 1416 1410 1404 1397 1390 1388 1390 1389 1385 1384 1386 1391 1393 1397 1408 1415 1409 1404 1414 1419 1406
1496 1495 1495 1494 1493 1493 1492 1491 1491 1490 1490 1489 1488 1487 1484 1478 1469 1461 1455 1454 1453 1451 1449 1447 1443 1439 1437 1431 1421 1416 1411 1406 1406 1407 1406 1405 1404 1401 1396 1393 1391 1390 1390 1391 1390 1386 1383 1383 1381 1379 1378 1374 1369 1368 1372 1375 1374 1373 1373 1373 1375 1381 1384 1387 1394 1397 1397 1396 1391 1383 1382 1387 1391 1391 1388 1386 1385 1385 1387 1394 1405 1408 1405 1404 1407 1408 1404
1494 1493 1493 1492 1491 1490 1490 1489 1489 1489 1488 1488 1487 1486 1483 1479 1471 1463 1458 1456 1453 1450 1448 1450 1452 1450 1448 1443 1432 1425 1420 1413 1410 1408 1404 1402 1403 1401 1397 1393 1390 1388 1387 1388 1389 1387 1384 1382 1381 1380 1378 1374 1370 1371 1373 1374 1375 1376 1375 1374 1377 1384 1384 1381 1385 1387 1384 1382 1379 1376 1378 1384 1385 1386 1387 1386 1384 1383 1385 1393 1397 1399 1404 1406 1399 1399 1404
1491 1490 1490 1489 1488 1488 1487 1487 1487 1486 1487 1487 1486 1484 1481 1476 1470 1465 1464 1462 1456 1452 1449 1452 1456 1454 1451 1448 1440 1434 1430 1425 1422 1418 1408 1403 1402 1400 1398 1395 1390 1387 1385 1386 1386 1385 1384 1383 1381 1381 1379 1375 1373 1371 1370 1372 1373 1374 1377 1375 1375 1384 1386 1377 1377 1384 1383 1379 1376 1374 1377 1380 1378 1377 1380 1383 1384 1384 1386 1388 1387 1390 1398 1397 1391 1396 1403
1489 1488 1487 1486 1486 1485 1485 1484 1484 1484 1485 1484 1484 1482 1477 1474 1470 1467 1466 1463 1457 1455 1452 1452 1454 1453 1451 1450 1445 1439 1435 1430 1426 1422 1416 1413 1408 1401 1398 1395 1392 1390 1386 1384 1384 1383 1384 1383 1380 1379 1379 1377 1375 1372 1370 1372 1373 1374 1378 1376 1374 1381 1384 1377 1375 1380 1381 1379 1378 1375 1376 1378 1376 1374 1374 1377 1380 1382 1383 1383 1380 1381 1387 1385 1384 1392 1393
1486 1485 1484 1484 1483 1483 1482 1482 1482 1482 1482 1482 1480 1478 1475 1473 1471 1468 1466 1462 1458 1456 1453 1450 1450 1449 1449 1449 1446 1441 1437 1433 1428 1423 1422 1424 1418 1410 1406 1402 1400 1398 1392 1387 1383 1379 1378 1378 1377 1376 1378 1377 1376 1373 1369 1369 1371 1374 1377 1374 1373 1379 1383 1380 1378 1382 1380 1376 1377 1377 1377 1377 1376 1375 1374 1374 1376 1377 1378 1380 1380 1381 1383 1381 1382 1388 1386
1483 1482 1482 1481 1480 1480 1479 1479 1479 1479 1480 1479 1477 1476 1474 1472 1471 1470 1468 1462 1457 1456 1453 1449 1447 1445 1444 1443 1441 1439 1437 1433 1431 1426 1425 1426 1423 1418 1418 1416 1411 1406 1399 1391 1385 1381 1379 1378 1376 1375 1375 1375 1374 1371 1367 1366 1369 1372 1374 1372 1371 1377 1384 1382 1383 1389 1385 1376 1377 1378 1376 1376 1378 1377 1375 1373 1373 1374 1373 1372 1375 1379 1383 1383 1384 1387 1385
1480 1479 1479 1478 1478 1477 1477 1476 1476 1477 1477 1476 1475 1473 1472 1471 1469 1469 1468 1462 1456 1455 1452 1449 1446 1441 1438 1436 1435 1435 1433 1431 1432 1430 1426 1424 1422 1421 1423 1422 1418 1411 1404 1399 1395 1392 1390 1387 1384 1380 1376 1373 1370 1368 1367 1369 1370 1369 1370 1370 1370 1375 1382 1382 1386 1394 1389 1380 1380 1378 1379 1390 1391 1378 1372 1371 1368 1369 1370 1367 1366 1368 1374 1381 1384 1382 1377
1477 1476 1476 1475 1475 1474 1474 1473 1473 1474 1473 1472 1472 1470 1470 1469 1467 1466 1467 1461 1455 1453 1450 1446 1443 1439 1435 1434 1433 1432 1431 1430 1431 1432 1429 1424 1421 1422 1423 1424 1421 1415 1409 1406 1404 1401 1396 1392 1388 1384 1380 1377 1374 1373 1374 1374 1373 1371 1369 1368 1367 1369 1379 1382 1384 1391 1391 1383 1380 1382 1392 1402 1390 1370 1366 1370 1367 1366 1368 1367 1363 1363 1365 1369 1371 1370 1369
1473 1473 1472 1472 1472 1471 1471 1470 1470 1471 1470 1469 1469 1467 1466 1468 1466 1465 1466 1461 1454 1452 1449 1443 1440 1438 1434 1433 1432 1431 1431 1430 1430 1432 1430 1426 1423 1422 1422 1423 1423 1418 1412 1410 1408 1404 1398 1393 1388 1383 1381 1379 1378 1378 1380 1378 1376 1373 1370 1370 1368 1368 1377 1383 1381 1385 1387 1382 1385 1399 1403 1390 1371 1362 1363 1365 1365 1365 1365 1362 1358 1358 1361 1362 1363 1364 1364
1469 1469 1469 1469 1468 1468 1468 1467 1467 1467 1467 1466 1465 1464 1463 1465 1465 1463 1463 1461 1455 1451 1448 1442 1439 1438 1435 1433 1431 1431 1430 1430 1428 1428 1428 1426 1423 1422 1421 1421 1421 1418 1416 1414 1411 1407 1402 1395 1391 1388 1382 1380 1381 1380 1379 1378 1376 1373 1370 1370 1371 1372 1377 1382 1381 1382 1386 1388 1394 1403 1394 1372 1362 1364 1361 1360 1363 1365 1368 1370 1362 1355 1356 1358 1360 1361 1359
1466 1466 1466 1465 1465 1464 1464 1464 1464 1464 1464 1463 1462 1461 1461 1462 1463 1463 1462 1460 1454 1450 1448 1443 1439 1437 1435 1433 1432 1430 1428 1427 1426 1423 1423 1423 1421 1420 1420 1419 1419 1419 1419 1417 1413 1411 1408 1402 1398 1393 1387 1387 1389 1386 1380 1377 1375 1373 1372 1370 1370 1374 1378 1381 1382 1382 1385 1390 1390 1388 1383 1375 1369 1368 1365 1364 1367 1366 1371 1379 1373 1359 1353 1353 1354 1357 1356
1463 1462 1462 1462 1461 1461 1461 1461 1461 1461 1461 1460 1460 1459 1459 1460 1461 1461 1460 1459 1456 1451 1448 1445 1441 1438 1437 1435 1434 1430 1427 1427 1425 1421 1419 1419 1418 1418 1418 1419 1419 1419 1419 1418 1416 1414 1412 1409 1405 1400 1394 1393 1393 1388 1380 1376 1372 1369 1370 1370 1368 1371 1374 1378 1384 1383 1380 1386 1389 1386 1389 1386 1374 1368 1366 1365 1367 1366 1370 1380 1378 1364 1355 1351 1349 1352 1354
1460 1459 1459 1459 1458 1458 1458 1458 1458 1458 1458 1457 1457 1456 1456 1457 1458 1458 1458 1458 1457 1451 1444 1442 1442 1441 1440 1438 1435 1432 1428 1427 1426 1423 1419 1416 1415 1415 1417 1418 1419 1419 1419 1418 1417 1415 1414 1411 1407 1402 1395 1388 1386 1384 1378 1375 1372 1365 1365 1368 1368 1369 1370 1374 1384 1385 1380 1385 1390 1388 1386 1381 1372 1367 1365 1365 1367 1365 1370 1383 1382 1366 1357 1353 1349 1349 1350
1457 1456 1456 1456 1456 1455 1455 1455 1455 1455 1455 1455 1454 1453 1454 1454 1455 1456 1455 1456 1455 1448 1441 1440 1441 1441 1439 1436 1432 1430 1428 1427 1427 1426 1422 1419 1416 1415 1415 1417 1417 1417 1418 1418 1415 1413 1412 1409 1405 1402 1393 1381 1377 1378 1373 1371 1371 1365 1362 1365 1368 1370 1370 1372 1379 1382 1379 1382 1384 1378 1371 1370 1370 1367 1364 1365 1366 1367 1379 1394 1386 1365 1360 1361 1356 1352 1349
1454 1454 1454 1453 1453 1453 1453 1453 1453 1452 1452 1452 1452 1451 1452 1452 1452 1452 1452 1453 1451 1445 1440 1441 1441 1439 1437 1435 1433 1431 1429 1427 1427 1426 1423 1420 1418 1416 1416 1417 1414 1413 1414 1415 1413 1412 1410 1406 1403 1399 1391 1379 1374 1374 1369 1364 1365 1362 1357 1361 1367 1369 1368 1369 1374 1376 1375 1378 1381 1375 1366 1361 1363 1364 1363 1364 1369 1376 1387 1391 1379 1366 1365 1366 1361 1358 1354
1452 1452 1452 1451 1451 1451 1451 1450 1450 1450 1450 1450 1449 1448 1448 1448 1449 1449 1449 1450 1448 1442 1437 1439 1440 1437 1434 1434 1434 1432 1430 1428 1427 1426 1424 1420 1417 1417 1417 1414 1412 1411 1410 1409 1409 1409 1408 1404 1398 1393 1389 1381 1374 1373 1369 1360 1355 1352 1351 1356 1363 1364 1364 1367 1370 1371 1370 1371 1375 1377 1369 1359 1358 1362 1363 1365 1376 1386 1383 1374 1368 1369 1369 1366 1364 1363 1359
1451 1450 1450 1449 1448 1449 1449 1448 1448 1448 1447 1447 1447 1445 1444 1446 1447 1446 1445 1446 1445 1440 1436 1437 1437 1435 1433 1433 1433 1431 1430 1429 1426 1425 1424 1421 1419 1419 1415 1411 1412 1411 1408 1408 1409 1406 1405 1404 1398 1393 1391 1383 1374 1373 1374 1365 1352 1344 1344 1349 1352 1353 1360 1367 1366 1365 1367 1369 1372 1377 1373 1361 1358 1362 1364 1367 1375 1379 1374 1368 1368 1370 1368 1367 1365 1363 1361
1449 1448 1448 1447 1447 1447 1447 1446 1446 1446 1445 1445 1444 1443 1442 1443 1444 1444 1442 1443 1443 1438 1434 1433 1433 1432 1432 1431 1431 1430 1430 1428 1426 1425 1423 1421 1423 1422 1416 1413 1416 1414 1408 1409 1410 1405 1404 1406 1401 1396 1393 1386 1379 1380 1382 1377 1362 1345 1338 1342 1344 1345 1354 1362 1359 1358 1364 1367 1367 1367 1363 1358 1359 1362 1364 1367 1369 1369 1370 1370 1369 1369 1370 1370 1368 1366 1364
1447 1447 1446 1446 1445 1445 1445 1444 1444 1443 1443 1443 1442 1441 1440 1441 1442 1442 1440 1440 1439 1436 1432 1431 1431 1430 1429 1428 1428 1428 1427 1427 1426 1425 1424 1421 1422 1422 1418 1415 1417 1415 1410 1410 1410 1409 1410 1410 1404 1400 1397 1391 1386 1385 1386 1386 1377 1357 1341 1341 1344 1342 1345 1349 1351 1353 1355 1356 1356 1356 1356 1357 1360 1362 1363 1365 1368 1369 1371 1371 1370 1371 1373 1372 1372 1370 1366
1446 1445 1445 1444 1444 1444 1443 1442 1442 1441 1441 1441 1441 1439 1438 1438 1439 1440 1439 1438 1436 1434 1431 1430 1428 1426 1424 1423 1423 1423 1423 1423 1424 1424 1424 1423 1421 1420 1418 1415 1415 1414 1412 1412 1411 1411 1414 1412 1407 1405 1401 1393 1388 1387 1387 1388 1381 1366 1356 1351 1345 1340 1340 1342 1347 1350 1353 1355 1357 1357 1358 1359 1361 1364 1366 1368 1369 1370 1371 1371 1372 1374 1374 1374 1375 1373 1366
1445 1444 1443 1443 1442 1442 1442 1440 1440 1440 1439 1439 1439 1438 1437 1437 1437 1438 1438 1437 1436 1433 1429 1426 1424 1422 1420 1418 1418 1418 1418 1419 1420 1420 1422 1423 1420 1417 1415 1414 1413 1413 1412 1413 1413 1412 1413 1411 1407 1406 1401 1394 1390 1389 1388 1385 1376 1368 1368 1367 1356 1346 1343 1343 1346 1351 1359 1365 1365 1362 1362 1363 1364 1367 1370 1370 1370 1372 1373 1374 1375 1376 1377 1378 1378 1377 1372
1444 1443 1443 1442 1441 1441 1440 1439 1439 1438 1438 1438 1438 1436 1436 1435 1435 1436 1436 1436 1434 1432 1428 1422 1418 1417 1417 1415 1415 1415 1414 1414 1415 1416 1417 1418 1417 1415 1413 1413 1414 1414 1414 1414 1414 1413 1412 1409 1407 1408 1403 1395 1392 1390 1385 1382 1377 1369 1371 1377 1371 1359 1352 1349 1349 1353 1360 1366 1367 1367 1369 1370 1370 1372 1374 1373 1373 1374 1375 1377 1379 1381 1383 1383 1384 1385 1382
1444 1443 1442 1441 1440 1440 1439 1438 1437 1437 1436 1437 1436 1435 1434 1433 1433 1434 1434 1434 1433 1431 1426 1420 1415 1414 1414 1412 1411 1411 1411 1411 1411 1412 1412 1413 1414 1414 1413 1413 1414 1414 1414 1414 1413 1412 1412 1409 1408 1410 1406 1398 1395 1393 1387 1384 1380 1372 1371 1377 1375 1366 1360 1356 1354 1358 1364 1367 1368 1369 1371 1374 1376 1376 1377 1378 1377 1376 1378 1381 1383 1385 1388 1389 1389 1391 1389
1443 1443 1442 1441 1440 1439 1438 1437 1437 1436 1435 1435 1435 1433 1432 1432 1432 1432 1432 1432 1431 1428 1423 1417 1414 1413 1412 1409 1408 1408 1408 1408 1408 1408 1408 1409 1411 1412 1412 1413 1414 1413 1412 1412 1411 1410 1411 1410 1407 1407 1405 1400 1398 1394 1388 1385 1381 1374 1374 1377 1374 1369 1367 1363 1362 1366 1369 1367 1365 1366 1369 1375 1380 1380 1379 1380 1380 1378 1380 1384 1388 1390 1391 1391 1391 1392 1390
1443 1442 1441 1440 1439 1438 1437 1437 1436 1435 1434 1434 1433 1432 1431 1430 1431 1431 1430 1430 1430 1427 1423 1419 1416 1413 1410 1406 1404 1404 1404 1404 1404 1405 1405 1406 1408 1409 1410 1410 1411 1411 1410 1409 1409 1408 1408 1408 1406 1403 1403 1403 1400 1393 1387 1385 1382 1378 1379 1379 1375 1374 1373 1370 1370 1371 1367 1361 1362 1365 1367 1374 1381 1382 1380 1381 1381 1380 1382 1387 1391 1393 1393 1392 1391 1391 1389
1443 1442 1441 1440 1439 1438 1437 1436 1435 1434 1434 1433 1432 1431 1430 1429 1429 1429 1429 1428 1428 1426 1424 1421 1415 1411 1407 1404 1402 1401 1400 1400 1401 1402 1403 1404 1405 1407 1408 1408 1408 1408 1407 1407 1408 1408 1407 1406 1406 1404 1403 1404 1403 1396 1389 1384 1382 1382 1383 1380 1377 1377 1375 1372 1371 1370 1364 1362 1367 1369 1369 1375 1382 1383 1381 1381 1382 1383 1386 1390 1393 1395 1396 1395 1393 1391 1390
1442 1441 1440 1439 1438 1437 1436 1435 1435 1434 1433 1432 1432 1431 1428 1427 1428 1428 1427 1427 1427 1425 1425 1422 1415 1409 1405 1401 1399 1398 1397 1397 1398 1399 1400 1402 1403 1404 1406 1406 1406 1406 1406 1405 1406 1407 1407 1406 1404 1402 1401 1402 1402 1397 1389 1382 1380 1383 1384 1381 1380 1380 1377 1374 1372 1370 1368 1369 1372 1372 1372 1377 1382 1382 1382 1382 1384 1385 1388 1392 1395 1397 1399 1399 1397 1394 1392
1442 1441 1440 1439 1438 1436 1435 1435 1434 1433 1432 1432 1431 1430 1427 1426 1427 1427 1426 1426 1426 1425 1425 1422 1417 1409 1403 1398 1396 1395 1394 1394 1396 1397 1398 1399 1401 1403 1404 1405 1405 1404 1405 1404 1405 1407 1407 1405 1403 1401 1399 1399 1399 1395 1388 1382 1380 1382 1383 1382 1382 1382 1379 1376 1373 1372 1371 1373 1375 1376 1377 1381 1383 1384 1385 1386 1387 1388 1390 1394 1397 1398 1400 1401 1400 1398 1396
1441 1440 1439 1438 1436 1435 1434 1433 1433 1432 1431 1431 1430 1428 1426 1426 1426 1426 1426 1426 1426 1425 1425 1422 1416 1409 1401 1396 1393 1392 1391 1391 1392 1394 1396 1398 1400 1401 1402 1403 1403 1403 1403 1404 1406 1406 1405 1403 1403 1401 1397 1396 1396 1392 1386 1383 1382 1384 1384 1383 1384 1383 1381 1379 1377 1375 1375 1376 1377 1378 1381 1384 1386 1387 1388 1389 1390 1390 1393 1396 1399 1400 1401 1402 1402 1401 1399
1441 1439 1438 1437 1435 1434 1433 1432 1431 1431 1430 1429 1428 1427 1426 1426 1426 1425 1425 1425 1425 1425 1424 1422 1417 1410 1402 1396 1392 1389 1388 1389 1391 1393 1395 1397 1398 1400 1401 1401 1402 1402 1403 1404 1404 1404 1403 1402 1402 1399 1395 1393 1392 1390 1387 1386 1386 1386 1386 1385 1385 1385 1383 1381 1380 1379 1379 1379 1379 1380 1384 1388 1390 1391 1391 1392 1392 1392 1394 1398 1400 1402 1403 1403 1403 1402 1400
1440 1438 1437 1436 1434 1434 1432 1431 1430 1430 1429 1428 1427 1426 1426 1426 1425 1424 1424 1424 1424 1424 1423 1421 1417 1411 1403 1398 1395 1391 1389 1390 1392 1393 1395 1396 1397 1398 1398 1400 1401 1401 1402 1402 1402 1403 1402 1401 1399 1397 1393 1391 1388 1388 1389 1390 1388 1388 1387 1387 1387 1386 1383 1382 1383 1384 1383 1383 1384 1385 1388 1391 1392 1393 1393 1393 1394 1396 1398 1400 1403 1405 1405 1404 1404 1402 1401
1439 1438 1437 1436 1434 1433 1432 1430 1430 1429 1429 1428 1427 1426 1425 1425 1424 1424 1424 1423 1423 1422 1420 1418 1416 1411 1406 1402 1398 1393 1390 1391 1393 1393 1394 1395 1397 1397 1397 1399 1400 1399 1398 1400 1401 1402 1400 1398 1396 1393 1390 1388 1388 1390 1391 1391 1390 1389 1390 1390 1390 1388 1385 1385 1388 1390 1390 1389 1389 1390 1392 1393 1392 1393 1394 1395 1398 1401 1403 1404 1405 1406 1405 1404 1405 1404 1404
1439 1438 1437 1435 1434 1433 1431 1430 1430 1429 1428 1428 1427 1426 1425 1424 1424 1423 1423 1422 1422 1421 1418 1415 1412 1410 1408 1406 1400 1394 1391 1391 1390 1390 1391 1392 1394 1395 1395 1396 1397 1396 1396 1398 1399 1398 1396 1393 1392 1390 1388 1388 1391 1392 1392 1391 1391 1391 1392 1392 1392 1391 1391 1391 1393 1393 1394 1394 1394 1393 1393 1394 1394 1396 1398 1400 1403 1405 1405 1405 1405 1405 1405 1405 1405 1406 1405
1439 1438 1436 1435 1434 1432 1430 1429 1429 1428 1427 1427 1426 1425 1424 1423 1423 1423 1422 1421 1420 1419 1418 1416 1412 1408 1407 1406 1402 1397 1394 1392 1390 1389 1388 1389 1390 1391 1390 1390 1390 1392 1394 1395 1394 1393 1392 1390 1389 1389 1390 1392 1393 1393 1391 1392 1393 1393 1393 1395 1395 1394 1395 1395 1395 1395 1396 1397 1397 1396 1397 1397 1398 1400 1402 1404 1405 1406 1406 1405 1406 1406 1407 1407 1407 1407 1406
1438 1437 1435 1434 1433 1432 1430 1429 1428 1427 1426 1425 1425 1425 1424 1423 1422 1421 1420 1419 1418 1417 1417 1415 1411 1407 1405 1403 1398 1395 1394 1394 1393 1392 1388 1384 1384 1385 1385 1385 1384 1385 1389 1391 1389 1388 1388 1388 1387 1390 1393 1394 1394 1394 1394 1394 1395 1395 1396 1397 1397 1397 1397 1398 1398 1398 1398 1399 1400 1401 1401 1402 1402 1403 1404 1405 1406 1407 1406 1406 1407 1408 1408 1408 1408 1408 1408
1437 1436 1434 1433 1432 1431 1430 1428 1427 1426 1425 1425 1425 1424 1423 1422 1421 1418 1416 1415 1415 1414 1414 1412 1408 1403 1401 1399 1395 1391 1390 1390 1392 1391 1385 1380 1380 1381 1383 1384 1381 1381 1387 1391 1388 1387 1389 1389 1388 1391 1396 1397 1396 1397 1398 1397 1397 1398 1398 1398 1398 1398 1398 1398 1399 1400 1401 1401 1402 1404 1404 1404 1405 1405 1406 1407 1407 1408 1408 1408 1409 1409 1410 1410 1410 1410 1410
1438 1436 1435 1434 1432 1431 1430 1428 1427 1426 1425 1424 1424 1422 1420 1419 1418 1414 1413 1413 1412 1409 1408 1406 1402 1398 1398 1396 1393 1390 1388 1388 1389 1388 1383 1379 1377 1377 1381 1384 1383 1383 1388 1390 1386 1385 1388 1389 1389 1394 1399 1401 1400 1400 1400 1400 1400 1400 1401 1400 1400 1400 1400 1400 1401 1402 1402 1403 1404 1406 1406 1407 1407 1407 1408 1409 1409 1410 1411 1410 1410 1411 1412 1412 1412 1412 1412
1438 1436 1436 1434 1431 1430 1429 1427 1426 1426 1426 1424 1422 1420 1418 1415 1412 1409 1410 1411 1409 1404 1403 1402 1399 1397 1397 1396 1393 1391 1388 1387 1387 1387 1385 1382 1377 1375 1380 1384 1383 1384 1389 1391 1386 1385 1387 1390 1393 1399 1403 1404 1403 1403 1403 1402 1402 1402 1402 1403 1403 1403 1403 1403 1403 1404 1404 1405 1407 1408 1409 1409 1409 1410 1410 1411 1411 1412 1412 1412 1413 1413 1414 1414 1413 1413 1413
1437 1436 1435 1433 1431 1429 1428 1427 1426 1426 1424 1423 1421 1420 1416 1412 1410 1409 1408 1408 1406 1405 1405 1404 1402 1400 1398 1397 1395 1393 1390 1386 1386 1388 1388 1385 1381 1382 1384 1385 1384 1385 1389 1390 1388 1387 1389 1393 1399 1404 1406 1405 1404 1405 1404 1404 1404 1404 1405 1405 1405 1405 1406 1406 1406 1406 1407 1408 1409 1410 1410 1411 1411 1412 1412 1413 1413 1414 1414 1414 1414 1415 1415 1415 1415 1414 1414
1437 1436 1434 1433 1432 1431 1429 1427 1426 1425 1423 1423 1423 1422 1418 1415 1413 1411 1408 1406 1405 1406 1407 1406 1404 1402 1399 1396 1394 1393 1390 1387 1387 1389 1388 1385 1385 1388 1388 1386 1385 1387 1387 1387 1388 1391 1395 1398 1403 1407 1407 1406 1406 1406 1406 1406 1406 1406 1406 1407 1407 1407 1407 1407 1408 1409 1409 1410 1411 1412 1412 1412 1413 1413 1414 1414 1415 1415 1414 1414 1415 1415 1415 1415 1415 1415 1415
1437 1437 1436 1435 1433 1431 1430 1429 1427 1427 1427 1426 1424 1422 1419 1417 1416 1413 1410 1408 1407 1407 1408 1408 1406 1403 1400 1396 1393 1392 1390 1387 1386 1388 1386 1383 1384 1388 1388 1387 1387 1387 1385 1386 1390 1395 1400 1404 1407 1408 1408 1408 1408 1408 1408 1407 1407 1407 1408 1408 1408 1408 1408 1409 1409 1410 1411 1412 1412 1413 1414 1414 1414 1415 1415 1416 1415 1415 1415 1415 1415 1415 1415 1416 1416 1416 1416
1440 1438 1437 1436 1434 1433 1433 1432 1430 1429 1430 1428 1425 1423 1422 1421 1418 1415 1413 1412 1410 1409 1408 1407 1404 1401 1398 1396 1393 1393 1392 1389 1388 1387 1385 1382 1383 1386 1388 1389 1390 1389 1387 1390 1394 1397 1402 1408 1411 1410 1409 1409 1409 1409 1409 1409 1408 1408 1408 1409 1409 1409 1410 1410 1411 1411 1411 1412 1413 1414 1415 1415 1416 1416 1416 1417 1416 1416 1416 1416 1416 1416 1416 1417 1417 1417 1417
1443 1440 1438 1438 1437 1436 1435 1435 1433 1430 1428 1427 1425 1424 1422 1420 1417 1414 1412 1411 1410 1408 1406 1405 1402 1401 1399 1397 1394 1393 1393 1391 1389 1386 1384 1384 1388 1389 1388 1391 1396 1396 1394 1396 1401 1404 1408 1412 1412 1411 1411 1411 1410 1409 1409 1410 1409 1409 1409 1410 1411 1411 1412 1412 1413 1413 1413 1414 1415 1415 1416 1417 1417 1417 1418 1418 1418 1418 1418 1418 1418 1417 1417 1417 1418 1418 1418
1444 1441 1440 1440 1440 1438 1436 1435 1434 1430 1427 1425 1423 1421 1418 1416 1415 1413 1411 1410 1408 1406 1405 1404 1403 1402 1401 1398 1396 1394 1391 1389 1390 1389 1387 1389 1393 1391 1389 1394 1403 1404 1402 1404 1409 1411 1411 1413 1414 1413 1413 1412 1411 1411 1410 1411 1411 1411 1411 1411 1412 1413 1414 1414 1415 1415 1415 1416 1416 1417 1418 1418 1419 1419 1419 1419 1419 1420 1419 1419 1419 1419 1419 1419 1419 1419 1419
1445 1443 1442 1442 1442 1439 1435 1433 1433 1432 1428 1424 1421 1418 1416 1414 1412 1410 1409 1408 1407 1406 1405 1404 1403 1402 1401 1400 1400 1397 1393 1391 1393 1395 1394 1393 1396 1396 1396 1401 1407 1408 1408 1411 1413 1413 1413 1415 1416 1416 1415 1414 1413 1413 1412 1412 1412 1413 1413 1414 1414 1415 1416 1416 1417 1417 1417 1418 1418 1418 1419 1420 1420 1421 1421 1421 1421 1422 1421 1421 1421 1421 1421 1421 1421 1421 1421
1446 1445 1444 1442 1441 1440 1435 1432 1431 1431 1428 1423 1419 1417 1414 1412 1410 1409 1408 1408 1407 1406 1405 1405 1404 1403 1402 1401 1400 1400 1397 1395 1397 1399 1398 1398 1400 1402 1403 1406 1411 1414 1415 1415 1414 1414 1415 1416 1417 1417 1418 1417 1416 1416 1415 1415 1415 1415 1415 1416 1417 1417 1418 1418 1418 1419 1420 1420 1420 1420 1421 1421 1422 1422 1423 1423 1424 1424 1424 1424 1423 1423 1423 1423 1423 1423 1423
1448 1447 1444 1440 1439 1438 1435 1431 1428 1427 1424 1421 1419 1417 1414 1412 1411 1410 1409 1408 1408 1408 1407 1405 1402 1400 1399 1399 1400 1403 1404 1403 1403 1404 1406 1407 1407 1407 1409 1412 1417 1419 1419 1417 1415 1415 1416 1417 1417 1418 1419 1419 1418 1418 1418 1418 1418 1417 1418 1418 1419 1419 1420 1420 1420 1421 1421 1422 1422 1422 1422 1423 1423 1424 1424 1424 1425 1425 1425 1425 1425 1425 1425 1425 1425 1425 1425
1449 1447 1445 1441 1439 1438 1436 1433 1431 1428 1425 1423 1421 1419 1417 1415 1413 1412 1411 1410 1409 1410 1411 1409 1404 1401 1402 1405 1407 1410 1412 1412 1411 1413 1415 1415 1415 1416 1419 1422 1423 1421 1418 1417 1416 1417 1418 1419 1419 1420 1420 1421 1421 1421 1420 1419 1419 1419 1419 1419 1420 1421 1421 1422 1422 1423 1423 1423 1423 1424 1424 1424 1424 1425 1425 1426 1426 1426 1426 1426 1426 1425 1425 1426 1426 1426 1425
1449 1448 1445 1443 1442 1441 1439 1437 1434 1432 1429 1427 1425 1422 1420 1418 1416 1415 1413 1412 1410 1411 1411 1410 1407 1406 1409 1412 1413 1413 1415 1417 1419 1421 1422 1422 1421 1422 1424 1425 1424 1422 1420 1419 1419 1420 1420 1421 1421 1421 1421 1422 1423 1422 1422 1422 1422 1421 1421 1421 1421 1422 1422 1423 1424 1424 1424 1425 1425 1425 1425 1425 1426 1426 1426 1427 1427 1427 1427 1427 1426 1426 1426 1426 1426 1426 1425